WB7CYS Weather Reports


Display with metric or nautical units.
time (UTC)temp
F
wind
direction
speed
MPH
gust
MPH
rain 1hr
in
rain 24hr
in
rain mn
in
humidity
%
barometer
mb
20260507171543 62 210 2.0 7.0 0.00 0.00 0.00 54 1014.5
20260507170040 62 201 3.0 8.0 0.00 0.00 0.00 56 1014.5
20260507164550 61 195 1.0 8.0 0.00 0.00 0.00 58 1014.6
20260507163037 61 225 3.0 6.0 0.00 0.00 0.00 60 1014.5
20260507161538 59 257 5.0 10.0 0.00 0.00 0.00 62 1014.7
20260507160036 58 309 4.0 6.0 0.00 0.00 0.00 64 1014.8
20260507154539 57 211 1.0 6.0 0.00 0.00 0.00 65 1014.6
20260507153035 57 127 0.0 4.0 0.00 0.00 0.00 66 1014.7
20260507151534 54 103 3.0 6.0 0.00 0.00 0.00 71 1014.7
20260507150033 51 82 5.0 9.0 0.00 0.00 0.00 75 1014.7
20260507144533 49 109 6.0 8.0 0.00 0.00 0.00 78 1014.5
20260507143034 49 145 2.0 4.0 0.00 0.00 0.00 77 1014.5
20260507141527 50 83 0.0 2.0 0.00 0.00 0.00 75 1014.3
20260507140027 49 84 1.0 5.0 0.00 0.00 0.00 75 1014.0
20260507134527 50 95 2.0 6.0 0.00 0.00 0.00 74 1013.9
20260507133024 49 84 5.0 8.0 0.00 0.00 0.00 76 1013.6
20260507131517 0 0.0 0.0 0.00 0.00 0.00 1013.5
20260507130013 0 0.0 0.0 0.00 0.00 0.00 1013.5
20260507124511 0 0.0 0.0 0.00 0.00 0.00 1013.6
20260507123007 0 0.0 0.0 0.00 0.00 0.00 1013.5
20260507121621 0 0.0 0.0 0.00 0.00 0.00 1013.5
20260507120100 0 0.0 0.0 0.00 0.00 0.00 1013.5
20260507114633 0 0.0 0.0 0.00 0.00 0.00 1013.6
20260507113047 0 0.0 0.0 0.00 0.00 0.00 1013.6
20260507111547 0 0.0 0.0 0.00 0.00 0.00 1013.6
20260507110040 0 0.0 0.0 0.00 0.00 0.00 1013.6
20260507104536 0 0.0 0.0 0.00 0.00 0.00 1013.5
20260507103031 0 0.0 0.0 0.00 0.00 0.00 1013.5
20260507101528 0 0.0 0.0 0.00 0.00 0.00 1013.7
20260507100023 53 51 5.0 6.0 0.00 0.00 0.00 66 1013.8
20260507094521 52 87 4.0 5.0 0.00 0.00 0.00 67 1013.7
20260507093019 53 94 4.0 6.0 0.00 0.00 0.00 64 1013.6
20260507091522 56 323 2.0 3.0 0.00 0.00 0.00 57 1013.4
20260507090022 57 61 0.0 3.0 0.00 0.00 0.00 54 1013.5
20260507084513 54 65 2.0 7.0 0.00 0.00 0.00 61 1013.5
20260507083010 57 87 1.0 2.0 0.00 0.00 0.00 55 1013.3
20260507081507 57 88 2.0 4.0 0.00 0.00 0.00 57 1013.3
20260507080005 59 96 2.0 4.0 0.00 0.00 0.00 52 1013.0
20260507074505 57 85 4.0 6.0 0.00 0.00 0.00 56 1013.1
20260507073003 58 82 4.0 5.0 0.00 0.00 0.00 56 1013.1
20260507071559 59 81 2.0 4.0 0.00 0.00 0.00 52 1013.0
20260507070056 61 335 0.0 3.0 0.00 0.00 0.00 49 1013.1
20260507064559 60 219 1.0 2.0 0.00 0.00 0.00 49 1013.0
20260507063104 60 91 1.0 4.0 0.00 0.00 0.00 51 1012.8
20260507061554 62 242 4.0 6.0 0.00 0.00 0.00 47 1012.7
20260507060053 62 273 3.0 5.0 0.00 0.00 0.00 48 1012.8
20260507054552 62 311 2.0 5.0 0.00 0.00 0.00 49 1012.8
20260507053052 63 238 5.0 9.0 0.00 0.00 0.00 46 1012.7
20260507051551 64 256 8.0 11.0 0.00 0.00 0.00 45 1012.6
20260507050050 64 287 3.0 6.0 0.00 0.00 0.00 44 1012.6
20260507044550 65 238 3.0 6.0 0.00 0.00 0.00 44 1012.7
20260507043049 66 236 7.0 12.0 0.00 0.00 0.00 42 1012.6
20260507041551 67 262 8.0 16.0 0.00 0.00 0.00 41 1012.4
20260507040053 68 229 10.0 17.0 0.00 0.00 0.00 40 1012.4
20260507034551 68 226 11.0 18.0 0.00 0.00 0.00 39 1012.2
20260507033050 69 224 13.0 19.0 0.00 0.00 0.00 39 1012.0
20260507031545 69 235 11.0 24.0 0.00 0.00 0.00 39 1011.8
20260507030045 70 242 14.0 19.0 0.00 0.00 0.00 38 1011.4
20260507024546 70 239 11.0 20.0 0.00 0.00 0.00 37 1011.3
20260507023049 71 239 16.0 24.0 0.00 0.00 0.00 37 1011.3
20260507021545 70 219 9.0 15.0 0.00 0.00 0.00 40 1011.2
20260507020104 71 264 7.0 12.0 0.00 0.00 0.00 40 1011.0
20260507014541 72 256 12.0 22.0 0.00 0.00 0.00 38 1010.9
20260507013049 73 235 7.0 12.0 0.00 0.00 0.00 41 1010.7
20260507011538 73 256 9.0 17.0 0.00 0.00 0.00 39 1010.6
20260507010039 74 249 14.0 20.0 0.00 0.00 0.00 36 1010.5
20260507004547 75 264 12.0 19.0 0.00 0.00 0.00 35 1010.3
20260507003043 76 245 9.0 14.0 0.00 0.00 0.00 35 1010.4
20260507001543 76 250 10.0 21.0 0.00 0.00 0.00 37 1010.3
20260507000036 76 282 18.0 23.0 0.00 0.00 0.00 36 1010.2
20260506234537 77 277 16.0 23.0 0.00 0.00 0.00 34 1010.2
20260506233033 77 281 16.0 21.0 0.00 0.00 0.00 33 1010.2
20260506231531 77 257 18.0 24.0 0.00 0.00 0.00 33 1010.1
20260506230030 78 263 15.0 20.0 0.00 0.00 0.00 34 1010.1
20260506224532 78 260 16.0 22.0 0.00 0.00 0.00 31 1010.2
20260506223036 77 264 16.0 22.0 0.00 0.00 0.00 37 1010.3
20260506221526 77 274 13.0 19.0 0.00 0.00 0.00 41 1010.5
20260506220025 76 290 16.0 24.0 0.00 0.00 0.00 43 1010.8
20260506214536 76 295 20.0 30.0 0.00 0.00 0.00 43 1010.7
20260506213023 77 293 24.0 30.0 0.00 0.00 0.00 41 1010.7
20260506211520 78 288 14.0 28.0 0.00 0.00 0.00 37 1010.6
20260506210020 79 274 13.0 26.0 0.00 0.00 0.00 37 1010.5
20260506204516 78 257 15.0 21.0 0.00 0.00 0.00 34 1010.7
20260506203014 78 246 13.0 23.0 0.00 0.00 0.00 39 1010.7
20260506201513 78 261 12.0 17.0 0.00 0.00 0.00 37 1010.8
20260506200008 76 228 7.0 17.0 0.00 0.00 0.00 41 1011.1
20260506194506 75 250 9.0 17.0 0.00 0.00 0.00 46 1011.4
20260506193004 74 215 6.0 14.0 0.00 0.00 0.00 47 1011.6
20260506191600 73 228 6.0 14.0 0.00 0.00 0.00 46 1011.8
20260506190103 73 255 6.0 13.0 0.00 0.00 0.00 48 1012.0
20260506184601 72 222 7.0 10.0 0.00 0.00 0.00 50 1012.2
20260506183102 71 226 4.0 10.0 0.00 0.00 0.00 52 1012.5
20260506181618 70 246 7.0 10.0 0.00 0.00 0.00 51 1012.8
20260506180050 70 251 7.0 12.0 0.00 0.00 0.00 50 1012.9
20260506174547 69 190 4.0 7.0 0.00 0.00 0.00 54 1012.9
20260506173056 68 274 3.0 10.0 0.00 0.00 0.00 54 1013.0